{"data":{"norad_id":68748,"epoch":"2026-05-25T02:46:29.092800Z","epoch_age_seconds":68632,"freshness":"FRESH","line1":"1 68748U 26082W   26145.11561450  .00035035  00000+0  64221-3 0  9995","line2":"2 68748  97.2887   8.6581 0003314  86.3511 273.8119 15.49218739  6140","mean_motion":15.49218739,"eccentricity":0.0003314,"inclination_deg":97.2887,"raan_deg":8.6581,"arg_perigee_deg":86.3511,"mean_anomaly_deg":273.8119,"bstar":0.00064221,"rev_number":614,"period_min":92.950076302944,"perigee_km":416.75770634387,"apogee_km":421.26285556168,"semimajor_km":6797.1472809528,"source":"CELESTRAK","updated_at":"2026-05-25T13:38:22.030898Z"}}